Location: 22
(39.7117°N, 89.5929°W)
Time: 08:09:32
(UTC-05:00)

Vanguard 1 Rocket - Pass Details

Date: 08 February 2023
Orbit: 652 x 4223 km, 34.3° (Epoch: 24 March)

Event Time Altitude Azimuth Distance (km) Brightness Sun altitude
Rises 17:35:20 0° 281° (W) 6,361 13.0 -2.5°
Reaches altitude 10° 17:39:31 10° 273° (W) 5,784 13.0 -3.2°
Maximum altitude 17:56:00 35° 216° (SW) 5,189 11.8 -6.3°
Drops below altitude 10° 18:17:34 10° 161° (SSE) 7,365 11.9 -10.4°
Sets 18:24:04 0° 153° (SSE) 8,212 12.1 -11.6°
